SCP
0 0 0 0 -0 -0 -0 0 0 -0 -0 -0 -0 0 0 0 -0 -0 -0 0 -0 -0 -0 -0 -0 -0 -0 -0 -0 0 0 0
0 0 -0 -0 -0 0 0 0 -0 0 -0 0 0 0 0 -0 -0 -0 -0 0 -0 -0 -0 -0 -0 -0 -0 -0 0 0 0 0
0 -0 -0 -0 -0 -0 0 0 0 0 0 -0 -0 0 -0 -0 0 -0 0 0 0 -0 -0 -0 -0 -0 -0 0 0 0 0 0
0 -0 -0 -0 -0 0 0 0 0 0 0 0 -0 -0 0 0 0 0 -0 -0 -0 -0 -0 -0 -0 -0 0 0 0 0 0 0
0 -0 -0 -0 0 -0 0 -0 0 -0 -0 0 -0 0 -0 0 0 -0 -0 -0 -0 -0 -0 -0 -0 -0 -0 0 0 0 0 0
-0 0 -0 0 0 0 0 -0 0 0 0 0 -0 -0 -0 0 0 -0 -0 -0 -0 0 0 0 -0 -0 -0 -0 -0 0 0 0
-0 0 0 0 0 0 -0 -0 -0 0 -0 -0 -0 -0 -0 -0 -0 -0 -0 0 0 0 0 0 0 0 -0 -0 -0 0 0 0
-0 0 -0 0 0 -0 0 0 -0 0 0 0 -1 -0 -1 -0 -0 -0 -0 -0 -0 -0 -0 0 0 0 0 0 0 0 0 -0
0 0 0 0 0 0 0 -0 -0 -0 0 0 -1 -0 -0 -0 -0 -0 -0 -0 -0 -0 0 0 0 0 0 0 0 0 0 0
0 0 0 0 0 0 0 0 -0 0 0 -0 -0 -0 -0 -0 -0 -0 -0 -0 -0 -0 0 0 0 0 0 0 -0 0 0 0
0 0 0 0 0 0 -0 0 -0 0 0 -0 -0 -0 -0 -0 -0 -0 -0 -0 -0 0 0 0 0 0 0 0 0 0 0 0
0 0 0 0 0 0 0 -0 0 0 0 0 0 -0 -0 -0 0 0 0 0 0 0 0 0 0 0 0 0 0 0 0 0
0 0 0 0 0 0 -0 0 -0 -0 0 0 0 -0 -0 0 0 0 0 0 0 0 0 0 0 0 0 0 0 0 0 0
0 0 -0 0 -0 -0 0 0 -0 -0 0 0 0 -0 0 0 0 0 0 0 0 0 0 0 0 0 0 0 0 0 0 0
0 0 0 -0 0 -0 0 -0 -0 -0 0 0 0 0 0 0 0 0 0 0 0 0 0 0 0 0 0 0 0 0 0 0
0 0 0 0 -0 -0 -0 -0 -0 0 0 0 -0 0 0 0 0 0 1 0 0 0 0 0 0 0 0 0 0 0 0 0
0 0 0 0 0 -0 0 -0 -0 0 0 -0 0 0 0 0 0 1 1 1 1 1 0 0 0 0 0 0 0 0 0 0
0 0 0 0 -0 0 0 -0 -0 0 0 0 0 0 0 0 0 0 1 1 1 1 1 0 0 0 0 0 0 0 0 0
0 0 0 0 0 0 0 0 -0 0 0 0 0 0 0 0 0 0 0 0 0 0 0 0 0 0 0 0 0 0 0 0
0 0 0 0 0 0 0 0 0 0 0 0 0 0 0 0 0 0 0 0 0 0 0 0 0 0 0 0 0 0 0 0
Wind_Speed_500mb
8 6 6 8 2 6 8 25 26 14 7 7 5 15 55 36 43 47 42 40 42 42 39 36 34 31 28 26 22 19 17 14
7 5 4 5 11 14 6 9 25 33 9 13 24 43 31 37 42 41 40 37 37 38 37 35 33 29 25 22 19 16 14 12
5 9 2 6 16 19 4 12 25 26 12 11 26 14 34 34 35 35 36 35 35 35 34 32 29 26 23 20 17 14 12 11
2 8 3 5 16 12 5 21 14 18 10 4 13 18 31 23 32 34 30 32 31 31 29 27 26 25 22 19 16 14 11 9
7 7 9 8 9 9 8 12 7 12 3 5 24 30 29 23 31 34 30 27 28 27 29 28 27 24 22 19 15 13 10 10
7 7 9 1 9 8 10 7 22 12 12 10 37 39 35 33 36 31 29 26 28 30 30 30 28 26 22 18 15 13 13 14
9 9 4 16 7 20 3 11 12 15 25 29 34 48 42 42 44 38 33 29 30 28 28 28 26 23 21 20 19 20 19 19
16 13 8 23 18 34 8 14 16 41 32 42 54 58 53 51 49 42 35 27 29 28 27 27 26 24 22 21 21 21 21 21
8 21 17 35 27 33 15 16 46 69 50 61 66 62 59 52 50 39 35 30 31 30 28 27 23 23 23 22 22 23 25 22
19 9 18 30 42 21 45 32 57 35 60 69 77 75 66 56 62 56 45 35 37 36 29 29 23 21 19 22 24 25 28 27
32 34 31 43 55 27 69 74 30 43 63 75 78 78 67 58 55 54 50 43 44 41 35 35 31 26 23 21 25 26 29 31
22 40 12 39 19 28 68 72 45 60 68 74 77 70 66 68 60 63 54 49 48 48 41 40 34 33 27 26 29 33 34 34
14 7 13 29 7 32 53 66 54 71 58 62 71 65 72 66 66 66 65 56 55 52 47 43 39 37 34 33 33 39 38 40
12 7 14 18 17 29 59 57 63 73 45 62 60 72 75 70 58 69 66 65 61 56 53 47 45 42 40 39 39 43 45 44
16 6 11 13 22 10 57 76 61 52 52 60 62 70 56 64 60 71 68 66 66 65 61 52 48 48 48 49 46 44 43 40
8 13 18 28 31 20 56 67 54 43 48 55 81 62 51 37 47 61 68 66 67 70 62 50 49 46 43 41 41 41 40 38
22 20 7 16 21 20 9 30 33 51 56 60 66 55 58 52 56 56 60 55 55 64 53 50 51 47 41 44 43 41 40 32
19 16 7 19 17 8 12 21 59 56 67 64 62 69 68 64 61 53 46 41 49 54 54 52 46 32 28 33 38 36 30 28
14 14 9 10 12 11 10 10 23 24 54 55 72 85 71 63 56 48 40 30 30 43 51 53 49 38 34 33 32 29 33 31
12 5 4 5 9 10 8 5 3 10 30 37 51 71 69 65 51 42 35 31 33 35 42 48 49 40 38 33 35 40 33 31
Wind_Direction_500mb
87 101 165 230 239 211 303 54 43 3 14 349 153 146 151 153 158 160 163 165 168 172 176 180 180 177 172 170 167 160 154 145
83 258 251 223 221 212 183 140 78 23 42 343 336 139 155 156 158 159 157 163 166 171 177 180 181 179 176 175 173 166 156 150
21 289 198 248 227 179 9 85 39 78 356 59 140 152 141 149 159 159 161 166 168 171 177 181 183 182 183 182 179 174 168 161
310 272 223 220 250 309 335 67 27 67 24 43 227 180 147 146 159 167 173 172 175 175 179 183 186 189 189 187 186 185 177 171
189 262 301 229 169 208 122 185 39 111 109 108 164 174 154 144 156 169 172 178 183 184 186 187 191 192 193 193 191 191 186 179
208 199 265 255 130 150 126 260 175 211 130 148 177 173 174 166 162 168 174 183 184 190 193 192 191 193 193 193 194 193 193 188
217 178 185 165 146 165 203 181 194 209 169 163 180 180 191 186 178 185 189 184 188 191 193 192 193 194 193 195 196 198 194 194
191 161 174 189 176 167 197 189 209 207 216 221 193 190 199 199 192 197 193 192 194 192 196 197 197 198 199 200 203 202 197 200
228 249 222 182 184 176 190 244 206 200 186 172 183 193 200 200 201 202 197 194 192 192 192 198 201 200 203 203 207 206 203 204
275 269 169 179 188 216 205 213 206 208 172 174 185 194 202 209 202 200 197 196 180 183 186 180 181 191 207 213 211 209 209 218
293 290 246 193 192 187 218 215 250 183 171 181 194 194 201 207 210 210 207 208 196 191 190 186 195 205 216 213 213 209 218 227
298 303 208 174 182 185 232 216 233 183 184 186 196 203 205 207 213 216 215 216 205 201 201 200 206 209 218 212 209 214 224 237
303 101 158 138 87 228 227 213 209 194 191 193 206 211 206 207 216 223 223 220 215 211 211 214 214 212 208 212 219 225 236 241
292 331 178 166 257 227 224 214 211 211 192 199 218 217 216 217 225 229 227 223 220 216 218 218 216 214 212 215 227 233 241 239
314 313 145 219 279 227 204 212 215 211 200 209 221 217 213 220 230 229 226 223 220 217 218 219 214 221 222 224 228 235 234 238
265 303 357 309 278 280 207 200 207 197 199 211 215 209 205 207 206 212 214 217 214 216 215 213 210 217 213 215 223 229 234 242
285 274 258 256 254 287 172 182 187 206 198 211 200 181 171 186 191 196 192 198 210 206 199 201 207 210 212 224 226 233 237 250
284 270 139 299 344 31 164 214 204 203 207 206 191 170 168 177 183 182 188 195 200 200 203 204 212 216 236 243 250 238 255 275
244 322 298 337 351 353 27 27 224 221 218 212 193 174 174 182 187 192 201 202 201 199 206 210 219 241 265 257 247 251 276 279
268 286 226 51 275 315 330 17 332 198 206 197 180 178 179 186 189 192 195 202 200 200 205 216 231 259 270 260 266 279 275 281
Wind_Speed_850mb
8 6 6 8 2 6 8 25 26 14 7 7 5 15 55 36 43 47 42 40 42 42 39 36 34 31 28 26 22 19 17 14
7 5 4 5 11 14 6 9 25 33 9 13 24 43 31 37 42 41 40 37 37 38 37 35 33 29 25 22 19 16 14 12
5 9 2 6 16 19 4 12 25 26 12 11 26 14 34 34 35 35 36 35 35 35 34 32 29 26 23 20 17 14 12 11
2 8 3 5 16 12 5 21 14 18 10 4 13 18 31 23 32 34 30 32 31 31 29 27 26 25 22 19 16 14 11 9
7 7 9 8 9 9 8 12 7 12 3 5 24 30 29 23 31 34 30 27 28 27 29 28 27 24 22 19 15 13 10 10
7 7 9 1 9 8 10 7 22 12 12 10 37 39 35 33 36 31 29 26 28 30 30 30 28 26 22 18 15 13 13 14
9 9 4 16 7 20 3 11 12 15 25 29 34 48 42 42 44 38 33 29 30 28 28 28 26 23 21 20 19 20 19 19
16 13 8 23 18 34 8 14 16 41 32 42 54 58 53 51 49 42 35 27 29 28 27 27 26 24 22 21 21 21 21 21
8 21 17 35 27 33 15 16 46 69 50 61 66 62 59 52 50 39 35 30 31 30 28 27 23 23 23 22 22 23 25 22
19 9 18 30 42 21 45 32 57 35 60 69 77 75 66 56 62 56 45 35 37 36 29 29 23 21 19 22 24 25 28 27
32 34 31 43 55 27 69 74 30 43 63 75 78 78 67 58 55 54 50 43 44 41 35 35 31 26 23 21 25 26 29 31
22 40 12 39 19 28 68 72 45 60 68 74 77 70 66 68 60 63 54 49 48 48 41 40 34 33 27 26 29 33 34 34
14 7 13 29 7 32 53 66 54 71 58 62 71 65 72 66 66 66 65 56 55 52 47 43 39 37 34 33 33 39 38 40
12 7 14 18 17 29 59 57 63 73 45 62 60 72 75 70 58 69 66 65 61 56 53 47 45 42 40 39 39 43 45 44
16 6 11 13 22 10 57 76 61 52 52 60 62 70 56 64 60 71 68 66 66 65 61 52 48 48 48 49 46 44 43 40
8 13 18 28 31 20 56 67 54 43 48 55 81 62 51 37 47 61 68 66 67 70 62 50 49 46 43 41 41 41 40 38
22 20 7 16 21 20 9 30 33 51 56 60 66 55 58 52 56 56 60 55 55 64 53 50 51 47 41 44 43 41 40 32
19 16 7 19 17 8 12 21 59 56 67 64 62 69 68 64 61 53 46 41 49 54 54 52 46 32 28 33 38 36 30 28
14 14 9 10 12 11 10 10 23 24 54 55 72 85 71 63 56 48 40 30 30 43 51 53 49 38 34 33 32 29 33 31
12 5 4 5 9 10 8 5 3 10 30 37 51 71 69 65 51 42 35 31 33 35 42 48 49 40 38 33 35 40 33 31
Wind_Direction_850mb
87 101 165 230 239 211 303 54 43 3 14 349 153 146 151 153 158 160 163 165 168 172 176 180 180 177 172 170 167 160 154 145
83 258 251 223 221 212 183 140 78 23 42 343 336 139 155 156 158 159 157 163 166 171 177 180 181 179 176 175 173 166 156 150
21 289 198 248 227 179 9 85 39 78 356 59 140 152 141 149 159 159 161 166 168 171 177 181 183 182 183 182 179 174 168 161
310 272 223 220 250 309 335 67 27 67 24 43 227 180 147 146 159 167 173 172 175 175 179 183 186 189 189 187 186 185 177 171
189 262 301 229 169 208 122 185 39 111 109 108 164 174 154 144 156 169 172 178 183 184 186 187 191 192 193 193 191 191 186 179
208 199 265 255 130 150 126 260 175 211 130 148 177 173 174 166 162 168 174 183 184 190 193 192 191 193 193 193 194 193 193 188
217 178 185 165 146 165 203 181 194 209 169 163 180 180 191 186 178 185 189 184 188 191 193 192 193 194 193 195 196 198 194 194
191 161 174 189 176 167 197 189 209 207 216 221 193 190 199 199 192 197 193 192 194 192 196 197 197 198 199 200 203 202 197 200
228 249 222 182 184 176 190 244 206 200 186 172 183 193 200 200 201 202 197 194 192 192 192 198 201 200 203 203 207 206 203 204
275 269 169 179 188 216 205 213 206 208 172 174 185 194 202 209 202 200 197 196 180 183 186 180 181 191 207 213 211 209 209 218
293 290 246 193 192 187 218 215 250 183 171 181 194 194 201 207 210 210 207 208 196 191 190 186 195 205 216 213 213 209 218 227
298 303 208 174 182 185 232 216 233 183 184 186 196 203 205 207 213 216 215 216 205 201 201 200 206 209 218 212 209 214 224 237
303 101 158 138 87 228 227 213 209 194 191 193 206 211 206 207 216 223 223 220 215 211 211 214 214 212 208 212 219 225 236 241
292 331 178 166 257 227 224 214 211 211 192 199 218 217 216 217 225 229 227 223 220 216 218 218 216 214 212 215 227 233 241 239
314 313 145 219 279 227 204 212 215 211 200 209 221 217 213 220 230 229 226 223 220 217 218 219 214 221 222 224 228 235 234 238
265 303 357 309 278 280 207 200 207 197 199 211 215 209 205 207 206 212 214 217 214 216 215 213 210 217 213 215 223 229 234 242
285 274 258 256 254 287 172 182 187 206 198 211 200 181 171 186 191 196 192 198 210 206 199 201 207 210 212 224 226 233 237 250
284 270 139 299 344 31 164 214 204 203 207 206 191 170 168 177 183 182 188 195 200 200 203 204 212 216 236 243 250 238 255 275
244 322 298 337 351 353 27 27 224 221 218 212 193 174 174 182 187 192 201 202 201 199 206 210 219 241 265 257 247 251 276 279
268 286 226 51 275 315 330 17 332 198 206 197 180 178 179 186 189 192 195 202 200 200 205 216 231 259 270 260 266 279 275 281